SCP
0 0 0 0 0 0 0 0 0 0 0 0 0 0 0 0 0 0 0 0 0 0 0 0 0 0 0 0 0 0 0 0 0 0 0 0 0 0 0 0 0 0 0 1
0 0 0 0 0 0 0 0 0 0 0 0 0 0 0 0 0 0 0 0 0 0 0 0 0 0 0 0 0 0 0 0 0 0 0 0 0 0 0 0 0 1 1 1
0 0 0 0 0 0 0 0 0 0 0 0 0 0 0 0 0 0 0 0 0 0 0 0 0 0 0 0 0 0 0 0 0 0 0 0 0 0 0 0 1 1 1 1
0 0 0 0 0 0 0 0 0 0 0 0 0 0 0 0 0 0 0 0 0 0 0 0 0 0 0 0 0 0 0 0 0 0 1 1 0 0 0 0 1 1 1 1
0 0 0 0 0 0 0 0 0 0 0 0 0 0 0 0 0 0 0 0 0 0 0 0 1 1 1 1 1 0 0 0 0 0 0 1 0 0 0 0 1 1 1 1
0 0 0 0 0 0 0 0 0 0 0 0 0 0 0 0 0 0 1 1 0 0 0 0 1 1 1 1 1 1 0 0 0 0 0 0 0 0 0 0 0 0 1 1
0 0 0 0 0 0 0 0 0 0 0 0 0 0 0 0 0 0 1 1 1 0 0 0 0 1 1 1 1 0 0 0 0 0 0 0 0 1 1 1 0 0 1 1
0 0 0 0 0 0 0 0 0 0 0 0 0 0 1 1 1 1 0 0 0 0 0 0 0 0 0 0 0 0 0 0 0 0 0 0 1 1 1 1 1 1 1 1
0 0 0 0 0 0 0 0 0 0 0 0 0 0 1 1 1 0 0 0 0 0 0 0 0 0 0 0 0 0 0 0 1 1 1 1 1 1 1 1 1 1 1 1
0 0 0 0 0 0 0 0 0 0 0 0 0 0 1 1 0 0 0 0 0 0 0 0 0 0 0 0 0 0 1 1 1 1 1 1 1 1 1 1 1 1 1 1
0 0 0 0 0 0 0 0 0 0 0 0 0 0 0 0 0 0 0 0 0 0 0 0 0 0 0 0 1 1 1 1 1 1 1 1 1 1 1 0 0 0 0 0
0 0 0 0 0 0 0 0 0 0 0 0 0 0 0 0 0 0 0 0 0 0 0 0 0 0 0 0 0 1 1 1 0 0 1 1 1 1 0 0 0 0 0 0
0 0 0 0 0 0 0 0 0 0 0 0 0 0 0 0 0 0 0 0 0 0 0 0 0 0 0 0 0 1 1 1 0 0 0 0 0 0 0 0 0 0 0 0
0 0 0 0 0 0 0 0 0 0 0 0 0 0 0 0 0 0 0 0 0 0 0 0 0 0 0 0 0 0 0 0 0 0 0 0 0 0 0 0 0 0 0 0
0 0 0 0 0 0 0 0 0 0 0 0 0 0 0 0 0 0 0 0 0 0 0 0 0 0 0 0 0 0 0 0 0 0 0 0 0 0 0 0 0 0 0 0
0 0 0 0 0 0 0 0 0 0 0 0 0 0 0 0 0 0 0 0 0 0 0 0 0 0 0 0 0 0 0 0 1 1 0 0 0 0 0 0 0 0 0 0
0 0 0 0 0 0 0 0 0 0 0 0 0 0 0 0 0 0 0 0 0 0 0 0 0 0 0 0 0 0 1 1 1 1 0 0 0 0 0 0 0 0 0 0
0 0 0 0 0 0 0 0 0 0 0 0 0 0 0 0 0 0 0 0 0 0 0 0 0 0 0 0 0 1 1 1 1 0 0 0 0 0 0 0 0 0 0 0
0 0 0 0 0 0 0 0 0 0 0 0 0 0 0 0 0 0 0 0 0 0 0 0 0 0 0 0 0 0 0 0 0 0 0 0 0 0 0 0 0 0 0 0
0 0 0 0 0 0 0 0 0 0 0 0 0 0 0 0 0 0 0 0 0 0 0 0 0 0 0 0 0 0 0 0 0 0 0 0 0 0 0 0 0 0 0 0
0 0 0 0 0 0 0 0 0 0 0 0 0 0 0 0 0 0 0 0 0 0 0 0 0 0 0 0 0 0 0 0 0 0 0 0 0 0 0 0 0 0 0 0
0 0 0 0 0 0 0 0 0 0 0 0 0 0 0 0 0 0 0 0 0 0 0 0 0 0 0 0 0 0 0 0 0 0 0 0 0 0 0 0 0 0 0 0
0 0 0 0 0 0 0 0 0 0 0 0 0 0 0 0 0 0 0 0 0 0 0 0 0 0 0 0 0 0 0 0 0 0 0 0 0 0 0 0 0 0 0 0
0 0 0 0 0 0 0 0 0 0 0 0 0 0 0 0 0 0 0 0 0 0 0 0 0 0 0 0 0 0 0 0 0 0 0 0 0 0 0 0 0 0 0 0
0 0 0 0 0 0 0 0 0 0 0 0 0 0 0 0 0 0 0 0 0 0 0 0 0 0 0 0 0 0 0 0 0 0 0 0 0 0 0 0 0 0 0 0
0 0 0 0 0 0 0 0 0 0 0 0 0 0 0 0 0 0 0 0 0 0 0 0 0 0 0 0 0 0 0 0 0 0 0 0 0 0 0 0 0 0 0 0
0 0 0 0 0 0 0 0 0 0 0 0 0 0 0 0 0 0 0 0 0 0 0 0 0 0 0 0 0 0 0 0 0 0 0 0 0 0 0 0 0 0 0 0
Wind_Speed
5 3 4 6 6 6 8 8 8 5 3 1 0 1 2 3 4 4 4 3 3 2 2 2 1 1 1 1 0 1 2 2 2 3 3 3 3 3 3 4 4 4 4 4
7 6 6 6 6 7 7 7 7 6 4 1 1 2 3 4 4 3 3 3 3 3 2 2 2 1 1 1 0 1 2 3 2 3 3 3 4 4 4 4 4 4 4 5
8 7 8 9 7 8 7 6 7 7 2 1 1 2 2 2 3 2 2 2 2 2 2 1 1 1 1 1 1 1 2 3 3 3 3 3 4 4 4 4 5 5 5 5
6 7 11 2 1 3 5 5 4 3 0 1 0 1 1 2 2 1 1 1 1 1 1 1 1 1 1 1 1 2 2 2 3 4 4 4 4 4 4 4 5 5 5 5
8 10 8 5 4 3 5 5 2 3 2 1 1 3 4 3 2 1 1 1 1 1 1 1 1 1 0 1 1 2 2 3 3 4 4 4 5 5 5 5 5 5 5 5
8 9 9 2 3 1 6 6 2 1 2 2 3 4 3 3 2 3 2 2 2 2 2 2 2 1 0 1 1 2 3 3 3 4 4 5 5 5 5 5 6 6 5 5
10 9 5 3 3 5 7 1 2 1 2 3 2 2 3 3 3 3 2 2 2 3 2 2 2 2 1 2 2 3 3 3 3 3 4 4 4 4 5 5 5 5 5 5
8 10 5 5 4 3 3 3 1 1 2 1 1 3 3 3 3 2 2 2 3 3 2 2 2 2 2 2 3 3 3 3 3 4 4 3 4 4 4 5 5 5 5 5
4 1 4 2 1 2 2 1 0 1 2 2 2 3 3 2 3 2 2 2 3 3 2 2 2 2 3 3 3 3 4 4 4 4 4 4 4 4 4 3 4 4 4 4
4 3 1 1 1 1 1 1 1 1 2 3 3 3 3 2 2 2 2 2 2 2 2 2 3 3 3 3 3 3 4 4 4 4 4 3 4 4 4 4 4 4 4 4
5 3 2 2 1 1 0 1 1 2 3 3 3 3 3 2 2 1 1 1 1 1 2 2 3 3 3 3 3 4 4 4 4 4 3 3 3 3 4 3 4 5 5 5
4 2 3 1 0 0 1 2 2 2 3 3 3 3 3 2 1 1 0 1 1 1 2 3 3 3 4 4 4 4 4 4 4 3 3 3 3 3 1 3 2 3 5 6
3 3 2 1 1 1 1 2 2 3 3 3 3 3 3 2 1 0 0 1 1 2 2 3 3 4 4 4 4 5 5 5 5 4 4 4 4 4 4 2 2 3 4 4
2 2 2 3 2 2 2 2 3 3 3 3 3 3 2 2 1 0 1 1 2 3 3 3 4 4 4 4 4 5 5 4 4 4 4 4 4 4 4 5 4 3 2 3
3 3 2 2 2 3 3 4 4 3 3 3 2 2 1 1 0 1 1 2 3 4 4 4 4 4 4 4 4 5 5 3 4 4 4 4 4 4 4 5 5 4 3 1
2 2 3 4 4 4 4 5 4 4 3 3 2 2 2 1 1 1 2 3 4 5 5 5 5 4 4 4 4 4 3 2 4 4 4 3 3 4 4 4 4 4 4 4
3 3 4 4 4 4 4 4 3 3 3 3 2 2 2 2 2 2 3 3 4 5 5 5 5 4 4 4 5 4 4 2 3 4 4 4 4 4 4 4 4 4 4 3
2 3 3 3 3 3 4 4 4 3 3 3 2 2 2 3 2 2 3 3 4 5 4 4 4 5 4 4 4 4 4 4 3 3 3 3 4 4 4 4 4 5 4 2
1 1 2 2 2 3 3 3 3 2 2 3 2 2 2 2 2 3 3 4 4 5 4 4 4 6 5 3 4 4 4 4 3 3 3 3 4 4 4 4 4 4 3 3
2 2 2 2 2 1 1 2 2 2 2 2 2 1 2 2 3 3 4 5 4 4 4 4 5 5 5 4 5 4 4 4 4 3 3 3 3 3 3 3 4 4 3 3
1 2 2 2 2 1 1 1 1 1 1 1 1 2 2 3 3 3 4 4 2 3 4 3 4 4 4 4 5 4 3 4 4 4 3 3 3 4 3 4 3 3 4 4
1 1 1 1 1 1 0 0 1 1 1 2 2 2 3 4 4 4 4 3 3 2 3 3 3 3 4 6 4 3 3 4 3 3 3 3 3 3 4 4 4 4 4 4
1 1 1 1 1 0 1 1 1 1 2 2 3 3 4 4 4 4 3 1 2 2 3 3 4 3 5 5 4 3 3 3 3 3 3 3 3 3 3 4 4 4 3 3
1 1 1 0 0 1 1 2 2 2 2 3 3 3 3 3 3 3 2 0 0 2 2 2 1 3 6 4 3 3 3 3 3 3 3 3 2 2 3 3 3 3 3 3
1 1 1 1 1 1 1 2 2 2 3 2 2 2 3 2 2 2 2 1 1 3 2 1 2 3 4 3 2 3 3 3 4 5 3 3 3 3 3 3 3 3 3 3
1 2 1 2 2 2 2 2 2 2 2 2 2 1 1 1 1 1 1 1 1 2 2 1 0 2 2 3 3 3 3 2 2 3 3 3 3 3 3 3 3 3 3 3
2 1 1 2 2 2 2 2 2 2 2 2 2 1 1 1 1 1 1 1 1 1 1 1 1 2 3 3 3 3 3 3 3 3 3 3 2 2 2 2 2 2 2 3
Wind_Direction
250 240 222 231 233 229 245 268 278 277 274 291 189 165 153 153 145 154 157 162 169 179 164 170 164 175 203 247 304 320 291 290 297 292 290 290 289 282 279 277 276 276 273 270
225 223 227 239 240 237 243 256 261 264 268 25 89 118 147 160 162 167 167 173 181 186 182 185 179 178 198 234 288 284 287 298 304 294 293 296 291 286 279 276 278 273 267 266
226 219 231 232 236 236 239 248 260 260 272 114 162 168 170 172 181 180 178 176 183 196 190 190 193 198 207 232 263 283 298 301 294 291 294 293 292 290 282 276 273 271 270 266
230 215 235 220 62 261 251 241 252 278 109 158 224 158 141 160 162 179 167 149 147 177 183 183 201 193 228 267 287 293 298 303 303 297 290 287 287 288 283 280 277 273 271 269
235 231 232 205 191 225 241 235 231 249 227 176 113 174 154 121 132 126 101 82 76 92 75 48 42 51 139 274 294 301 312 308 308 300 294 289 287 289 287 281 278 275 273 272
236 243 241 196 132 212 245 224 142 240 218 183 194 227 127 108 120 107 85 63 48 63 74 58 23 20 325 286 303 312 315 307 300 293 292 290 289 287 284 277 272 273 273 271
234 241 237 97 129 200 236 5 73 191 188 200 234 340 85 117 118 101 84 65 54 54 58 43 14 356 327 326 328 325 319 310 301 295 285 284 289 289 287 282 281 279 279 272
232 241 223 113 169 236 6 35 58 137 172 178 112 101 117 118 116 102 81 62 51 47 47 37 15 345 333 336 336 329 315 306 301 298 293 298 296 294 291 289 281 278 275 274
254 269 72 131 105 29 357 319 199 172 170 165 160 142 134 123 119 105 82 65 52 43 47 38 20 356 340 342 335 323 310 302 296 294 293 294 288 288 284 280 285 291 289 286
229 206 167 185 268 303 292 276 240 206 191 186 170 152 149 134 118 110 98 77 57 40 27 16 10 2 345 333 322 311 307 305 297 290 288 288 287 287 291 299 298 298 298 299
226 229 234 216 234 269 277 197 182 181 187 181 165 164 155 146 136 126 102 57 30 16 8 360 355 349 344 338 325 313 309 303 295 294 300 295 287 294 293 303 312 300 304 303
250 226 253 228 281 268 202 177 172 171 172 171 165 162 158 152 147 144 85 12 346 347 345 343 342 344 344 334 321 311 303 301 298 295 300 293 296 295 313 289 295 274 284 292
284 282 291 269 253 245 220 187 178 174 170 166 159 159 158 147 152 174 304 321 325 321 320 321 324 335 339 330 321 314 308 306 301 300 297 294 296 297 297 291 252 250 257 268
231 240 229 225 222 212 187 164 156 153 154 152 149 153 150 148 146 238 322 323 317 315 311 311 313 322 326 322 314 308 303 305 296 297 299 299 299 300 303 305 302 301 255 228
230 246 226 211 200 187 179 170 166 160 155 151 153 159 169 174 179 280 304 309 306 303 310 309 306 310 313 308 306 304 307 317 314 307 302 305 308 304 303 307 308 309 315 332
221 203 192 194 192 192 190 188 184 175 169 170 181 188 188 204 241 266 289 302 301 307 309 305 301 301 300 297 294 289 295 312 304 300 302 307 303 303 307 309 308 310 315 328
184 191 194 196 198 200 201 198 191 187 183 182 186 192 200 215 238 260 278 292 301 300 300 300 303 304 293 283 284 292 299 291 268 291 305 309 308 305 304 303 306 308 312 344
212 213 215 211 205 197 193 189 189 190 188 184 187 196 214 237 260 281 287 295 298 297 301 302 310 298 286 281 283 291 293 290 286 289 290 298 303 302 300 300 303 304 309 329
114 139 156 176 184 183 183 185 186 182 179 191 204 222 244 264 280 285 291 291 291 292 306 311 301 286 291 295 286 271 281 289 289 285 287 281 277 287 297 301 301 301 307 313
100 106 112 113 116 132 160 177 183 185 190 198 207 236 261 269 274 276 279 280 293 314 314 310 291 292 294 292 284 284 285 291 296 295 293 294 293 294 296 301 305 311 312 309
123 127 124 125 113 109 138 177 199 207 214 219 232 259 274 281 280 275 276 283 309 322 306 290 287 304 306 312 279 294 300 301 301 300 298 298 299 300 303 305 311 315 314 314
124 125 124 124 120 119 89 279 234 232 249 267 286 296 292 285 280 276 273 289 308 335 294 296 314 351 331 305 293 306 307 307 309 310 310 308 303 304 309 314 312 313 314 316
100 112 112 100 106 141 291 290 291 278 271 280 287 285 286 292 290 283 280 285 301 338 303 336 11 1 315 287 300 308 313 314 312 308 304 302 304 309 315 316 319 322 322 319
119 104 84 39 237 232 263 284 295 285 274 272 275 279 282 280 276 274 293 68 335 299 307 38 28 309 282 280 297 306 317 314 306 305 308 305 308 313 316 318 323 323 320 319
158 165 192 230 259 270 275 267 268 272 268 269 274 274 275 285 295 313 325 330 335 280 286 135 191 269 277 303 314 318 318 326 325 321 319 318 321 326 326 332 337 333 331 331
202 218 223 247 269 273 270 276 282 286 284 279 285 294 300 303 287 274 271 278 295 293 304 350 26 258 299 323 328 325 328 328 310 307 328 328 329 336 345 346 335 331 332 336
222 224 225 238 239 250 266 275 276 279 282 279 289 300 303 306 301 287 275 287 288 309 341 357 357 344 341 341 341 337 336 337 338 338 341 336 333 336 342 331 325 328 329 339